Wind_Speed
20 19 19 18 17 17 16 17 17 17 18 19 20 22 23 25 27 28 29 29 29 30 31 31 32 32 32 32 32 32 32 31 30 29 28 26 25 23 22 21 19 18 17 17 16 16 16 17 18 19 20 22 23 24 24 25 25 24 23 22 22 22 23 24 26 27 26 24 24
20 20 19 19 19 20 20 21 22 23 24 25 27 29 31 32 34 34 33 32 32 32 33 33 33 32 31 30 30 30 30 30 28 26 23 21 20 18 16 16 16 16 15 16 16 17 17 19 20 21 22 23 24 24 24 24 25 26 26 24 22 23 24 25 27 27 28 28 27
21 21 21 22 22 23 24 26 27 28 29 31 33 34 36 37 37 36 35 35 34 34 34 34 33 31 29 28 28 27 27 25 23 21 19 17 17 16 15 14 14 14 15 16 17 17 19 20 21 22 23 23 23 23 23 23 24 24 24 24 25 26 28 30 30 30 31 31 31
23 23 24 25 26 27 28 29 30 32 33 34 35 36 36 37 36 36 35 34 34 33 32 32 30 29 27 26 25 24 22 20 19 19 18 16 15 14 14 14 14 15 15 16 17 19 20 20 21 21 21 22 22 23 23 23 24 24 24 25 27 29 30 31 32 32 32 32 32
25 25 26 26 27 28 29 30 31 32 33 33 34 34 34 34 33 33 32 31 30 30 30 29 29 27 26 24 23 22 21 20 20 19 17 16 15 15 14 15 15 15 16 17 18 19 19 20 20 20 20 21 22 23 24 24 25 25 26 28 29 29 30 30 30 30 30 30 31
26 26 26 26 27 28 28 29 29 30 30 30 30 31 31 31 31 30 30 29 28 27 27 27 27 27 26 25 24 22 22 21 20 18 17 16 15 15 15 15 15 16 17 18 19 20 20 20 20 21 21 21 22 23 24 25 25 26 27 27 27 27 27 27 27 27 27 27 27
27 27 27 27 27 27 28 28 28 28 28 27 28 28 29 30 30 30 30 30 28 27 25 25 25 26 26 25 24 23 21 19 18 17 16 16 15 15 15 15 16 18 19 20 21 21 22 21 21 22 22 22 22 23 23 24 24 24 24 23 23 23 23 23 24 24 23 23 23
28 28 28 28 28 27 27 27 27 27 27 26 27 27 29 30 31 31 32 32 32 30 27 24 23 23 23 22 21 20 18 17 16 15 15 14 14 14 15 17 19 21 22 23 23 23 22 22 21 21 21 21 21 21 21 21 21 20 20 19 19 20 20 20 21 21 21 21 21
29 29 29 29 28 28 28 27 27 27 27 27 28 29 30 31 32 33 33 34 34 33 30 27 23 20 19 18 17 16 14 13 12 12 12 12 13 14 16 18 20 22 23 23 22 21 20 20 19 19 18 18 18 18 18 18 17 17 16 16 17 18 19 19 20 20 20 20 20
30 30 31 31 30 30 30 30 30 30 30 31 32 33 33 34 34 34 34 34 34 34 33 31 27 23 20 17 15 13 12 11 11 11 12 13 14 15 17 19 20 20 20 20 19 18 17 17 16 16 16 16 15 15 15 15 15 15 15 16 17 18 19 20 20 20 21 21 20
31 31 32 33 33 34 34 34 35 35 36 36 37 36 36 36 35 35 34 33 33 33 33 33 31 28 25 21 17 14 12 11 11 13 15 16 18 18 19 19 18 18 17 16 16 16 15 15 15 14 14 14 14 14 14 14 14 15 16 17 18 19 20 21 21 21 22 22 22
31 32 33 35 36 37 38 38 39 39 40 40 39 39 38 38 36 34 33 32 32 32 32 32 31 30 28 25 21 18 15 13 14 16 20 22 23 22 20 18 16 15 15 15 15 15 15 15 15 15 15 15 15 15 15 15 16 17 18 19 20 21 22 22 23 23 23 23 23
33 34 35 36 38 39 40 40 41 41 41 41 40 40 39 38 36 34 32 32 31 31 31 31 30 29 28 27 25 21 18 15 16 20 24 26 25 22 19 16 15 15 15 15 16 16 16 16 17 17 17 17 17 17 18 18 19 20 21 22 22 23 23 24 24 25 25 25 25
34 35 37 38 39 40 40 41 41 41 41 40 40 40 39 38 36 34 32 32 31 31 31 30 28 28 28 28 26 23 19 16 18 23 26 25 22 19 16 15 15 16 16 16 16 17 17 18 18 19 19 19 20 20 21 21 22 23 23 24 24 24 25 25 25 26 26 26 26
36 37 38 39 39 40 40 40 40 40 40 40 40 40 39 37 35 34 33 32 32 31 31 29 27 27 27 27 26 23 19 16 20 23 24 22 18 16 15 15 16 16 17 17 17 17 18 18 19 20 20 21 22 22 23 24 24 25 25 25 25 25 25 25 25 26 26 27 27
37 38 38 39 39 39 39 39 39 39 39 39 39 39 38 36 35 34 34 33 32 32 31 29 26 26 27 27 24 20 16 16 19 21 20 18 15 14 14 15 16 17 17 17 18 18 18 19 19 20 21 21 22 22 23 24 25 25 26 26 26 26 25 25 25 25 26 27 28
37 38 38 39 39 39 39 39 39 39 39 39 39 39 37 36 36 35 35 35 34 33 31 28 27 27 27 24 19 15 13 16 18 18 17 15 14 14 14 15 16 17 17 17 17 18 18 18 19 19 19 20 21 21 22 23 24 24 25 25 26 26 25 25 25 25 26 27 29
37 38 38 39 40 40 40 40 40 40 40 40 40 39 38 36 36 37 37 36 35 34 31 29 29 28 25 20 15 12 13 15 16 15 14 13 13 13 14 15 15 16 16 16 16 16 17 17 17 18 18 18 19 20 21 22 23 23 24 24 25 25 25 25 25 26 27 28 30
38 39 40 40 41 41 40 40 40 41 41 40 40 40 39 38 37 37 36 35 33 32 31 30 30 27 22 17 13 12 13 14 14 13 12 12 12 13 14 14 14 15 15 15 15 15 16 16 17 17 18 19 20 21 22 22 22 23 23 23 24 24 25 25 26 27 28 30 31
40 41 41 41 41 41 40 40 40 40 40 39 38 38 38 37 36 33 31 29 29 29 29 28 27 24 20 15 12 12 12 12 12 11 11 12 12 13 14 14 14 14 14 14 15 15 16 16 17 18 19 20 21 22 23 23 23 23 23 23 24 24 25 26 27 28 29 31 32
42 42 42 41 41 40 40 39 39 38 36 35 35 35 35 34 33 29 26 25 25 26 26 25 23 20 16 13 12 12 11 10 10 10 11 11 12 13 14 14 14 14 14 15 15 15 16 17 18 19 20 22 22 23 24 24 24 24 24 24 24 25 25 26 27 28 30 31 32
42 41 41 40 40 39 38 37 35 33 31 30 30 30 31 30 28 26 23 22 22 23 22 21 18 15 13 12 12 11 10 9 9 10 10 11 12 13 14 14 15 15 15 15 16 16 17 18 19 20 21 22 23 24 25 25 25 25 25 25 25 25 26 27 27 28 29 30 31
41 41 40 40 39 37 35 32 29 27 26 26 26 27 27 26 24 22 21 20 20 20 18 16 14 12 11 10 10 9 9 10 10 10 11 12 13 14 14 14 15 15 15 16 16 17 18 19 20 21 22 23 24 25 25 26 26 26 25 25 26 26 26 27 27 28 29 29 30
40 40 39 38 37 34 30 26 24 23 23 24 24 25 24 24 22 20 19 18 17 16 14 12 11 10 9 8 9 9 10 10 10 11 11 12 13 14 15 15 15 16 16 17 18 18 19 20 21 22 23 24 25 25 25 25 25 25 25 26 26 26 26 27 27 28 28 28 28
40 39 38 36 33 29 24 21 20 21 22 23 23 23 22 21 20 19 17 15 13 12 10 9 8 8 8 9 9 9 10 10 11 11 12 13 13 14 15 16 16 16 17 18 19 19 20 21 22 22 23 24 25 25 25 25 26 26 26 26 26 27 27 27 28 28 28 27 27
39 38 36 33 29 24 20 18 18 20 21 21 21 20 20 19 17 15 13 11 10 9 8 7 7 8 8 9 10 10 10 11 11 12 13 13 14 15 16 16 17 17 18 19 19 20 21 21 22 23 24 24 25 25 26 26 27 27 27 27 27 27 27 28 28 28 28 27 26
37 35 32 29 25 20 17 16 18 19 20 20 19 18 17 16 14 12 11 10 9 8 8 8 8 9 9 10 11 11 11 12 12 13 13 14 15 15 16 17 17 18 18 19 20 20 21 22 23 24 25 25 26 26 27 28 28 28 27 27 27 27 27 28 28 28 28 27 27
34 32 29 26 22 18 16 16 18 19 19 18 16 15 14 13 12 11 10 10 9 9 9 9 10 11 11 12 12 12 12 13 13 13 14 14 15 16 16 17 17 18 19 19 20 21 22 23 24 25 26 26 27 28 28 28 28 28 28 27 27 27 27 28 28 28 28 29 29
31 28 26 23 20 17 16 17 19 19 18 16 15 13 13 12 11 11 11 10 10 10 11 12 12 13 13 13 13 13 13 13 13 14 14 15 15 16 16 17 17 18 19 20 21 22 23 24 25 26 27 28 28 29 29 28 28 28 27 27 27 28 28 28 29 29 30 30 31
27 25 23 21 18 16 16 17 18 18 17 15 14 13 13 13 12 12 12 12 12 12 12 13 13 13 13 13 13 13 13 13 14 14 14 15 15 16 16 17 18 19 20 21 23 24 25 26 27 28 29 29 29 29 28 28 27 27 28 28 28 28 29 29 30 30 31 31 32
24 22 21 18 16 15 15 16 17 16 15 14 13 12 13 13 14 14 14 14 14 13 13 13 13 13 13 13 13 13 14 14 14 14 15 15 16 16 17 18 19 20 22 23 24 26 27 28 28 29 29 29 29 28 28 27 27 28 28 28 29 29 29 29 30 30 31 31 32
22 20 19 16 14 14 14 15 14 13 12 12 12 12 12 13 13 14 14 14 14 14 13 13 13 13 13 13 13 14 14 14 15 15 15 16 17 18 19 20 21 22 23 24 25 26 27 28 28 28 29 28 28 28 28 28 28 28 29 29 28 28 27 27 28 28 29 30 30
20 19 18 16 15 14 14 14 13 12 11 11 11 11 12 12 12 13 13 14 14 14 14 14 14 14 14 14 14 14 14 15 15 16 16 17 18 19 21 22 23 24 24 25 25 26 26 27 27 28 27 27 27 27 28 28 28 29 29 28 27 26 25 24 24 24 25 27 28
19 18 18 17 17 16 16 15 13 12 11 11 11 11 11 11 12 12 13 13 14 14 14 14 14 14 14 14 14 15 15 15 16 17 18 19 20 21 22 23 24 25 25 25 25 26 26 27 27 27 26 26 26 26 27 28 28 28 28 27 26 25 23 22 22 23 24 25 26
18 18 18 18 18 18 18 17 16 14 14 13 12 11 11 11 12 13 13 14 14 15 15 14 14 14 14 14 14 15 15 16 17 18 19 20 21 23 23 24 25 25 25 26 26 27 27 27 27 26 26 25 25 26 26 27 28 28 27 27 26 25 25 24 24 24 25 25 26
17 17 17 17 18 18 18 18 17 17 16 15 14 14 13 13 13 13 14 14 15 15 15 15 14 14 14 14 14 15 16 17 18 19 20 21 22 23 24 24 25 25 26 26 27 27 27 27 27 27 26 26 26 26 26 27 27 27 27 26 26 26 25 25 25 26 26 27 27
16 16 16 16 16 16 17 17 17 17 17 17 16 15 15 14 14 14 14 15 16 16 15 14 14 14 14 14 14 15 16 17 18 20 21 22 23 24 24 25 25 26 26 27 27 27 27 27 27 27 27 27 27 27 28 28 27 27 26 26 25 25 25 26 26 27 27 28 28
15 15 15 15 15 15 15 16 17 17 18 18 17 16 16 15 15 15 15 16 16 16 15 14 13 13 13 14 15 16 17 18 20 21 22 23 23 24 25 25 26 26 26 26 26 26 27 27 28 29 29 29 29 29 29 29 28 27 26 26 26 26 26 26 27 28 28 29 29
15 14 14 14 14 15 15 16 16 17 18 18 18 18 17 17 16 16 16 16 16 16 15 14 13 13 13 14 16 17 18 20 21 22 22 23 24 24 25 26 26 26 26 26 26 26 26 28 29 30 31 31 31 31 31 30 29 28 28 27 28 28 28 29 29 29 30 30 30
16 15 15 15 15 15 15 16 17 18 18 19 19 19 19 18 17 16 16 15 15 15 15 14 14 14 15 16 17 19 20 21 22 22 22 23 24 25 25 25 25 25 25 25 25 26 27 28 30 31 32 32 32 32 32 31 30 29 29 29 29 30 31 31 31 31 31 31 31
16 16 16 16 16 16 16 16 17 18 19 19 19 19 19 18 17 16 15 15 15 15 16 15 15 16 17 18 20 21 21 22 22 22 23 23 24 25 25 25 25 25 25 25 25 26 27 28 29 30 31 32 32 32 32 31 31 30 30 30 30 31 31 31 31 31 30 30 30
Wind_Direction
329 327 325 324 322 321 320 319 319 320 321 322 322 321 321 320 320 320 320 319 316 314 311 308 305 302 300 298 296 294 292 290 289 288 287 286 285 284 282 281 281 281 280 280 280 280 279 277 276 275 274 274 275 277 278 280 282 283 284 283 282 283 286 289 294 297 300 303 304
330 328 326 324 322 320 319 318 318 318 318 318 318 318 317 318 318 318 317 316 315 312 310 307 304 301 297 294 291 289 287 286 286 286 286 284 282 281 279 278 279 277 274 273 273 273 273 273 274 276 277 279 281 282 283 285 286 286 286 287 291 295 298 300 302 304 306 307 307
333 331 328 326 324 322 321 321 320 319 318 317 317 317 317 318 317 317 315 314 312 311 309 307 304 300 295 290 288 286 284 284 283 283 283 282 281 278 275 274 273 272 271 270 271 273 274 276 279 281 284 286 287 288 290 291 292 292 292 295 299 302 303 303 304 305 305 305 304
334 332 330 328 327 326 324 323 322 321 320 319 319 319 319 319 319 318 317 315 313 312 310 308 304 300 295 292 289 287 285 283 283 283 283 280 278 274 271 271 271 273 274 274 276 278 280 283 285 288 290 292 294 295 295 296 297 298 300 301 303 304 304 303 303 303 303 303 302
334 332 331 329 328 326 325 324 323 322 321 321 322 322 321 321 320 319 319 318 317 316 314 310 306 302 298 295 292 288 285 284 283 282 280 277 274 273 272 273 275 278 280 282 284 285 287 289 291 293 295 296 297 298 299 299 301 302 302 303 303 303 303 303 302 303 303 303 303
333 331 329 327 325 324 322 321 321 321 322 323 324 324 323 321 320 319 318 318 319 319 318 314 310 305 301 298 293 289 285 283 281 279 276 274 273 273 274 277 280 284 287 289 290 290 291 292 294 295 296 298 299 299 299 300 301 302 302 302 302 302 303 303 304 305 306 306 305
331 330 328 326 324 322 320 319 319 319 320 322 324 325 324 323 321 319 316 315 314 316 317 318 315 310 305 300 295 290 286 283 280 277 274 272 273 275 280 285 290 293 295 295 294 294 293 294 295 296 297 298 299 300 301 302 303 303 304 305 306 307 309 310 311 312 312 312 312
329 328 327 326 324 322 321 320 319 319 320 322 325 325 325 324 322 320 317 315 312 311 311 313 315 313 309 304 299 294 290 286 283 280 277 276 279 285 292 299 303 304 304 302 300 298 298 298 298 299 300 301 302 303 305 307 308 310 311 313 315 318 320 322 323 323 323 322 322
328 327 326 326 325 325 324 323 322 322 323 324 325 325 325 324 323 322 321 319 316 312 309 306 306 307 307 305 302 300 299 298 298 298 298 299 302 306 310 313 313 312 310 307 305 305 306 307 307 307 306 307 308 310 313 315 318 320 323 325 328 331 332 333 333 333 333 332 332
328 327 327 326 326 326 325 324 324 324 324 325 325 325 324 324 324 324 323 323 322 318 313 306 301 297 296 296 296 298 302 307 313 318 322 323 324 325 325 323 320 316 313 311 311 313 315 317 317 317 316 316 318 321 324 327 330 332 334 336 337 339 340 339 339 339 340 339 339
328 327 327 326 326 325 325 324 324 324 324 324 324 325 325 326 326 326 325 325 324 322 318 312 304 297 290 286 284 285 289 298 309 319 326 330 333 335 334 330 326 321 319 320 321 324 326 326 326 326 326 326 328 332 335 337 338 339 339 339 340 340 340 340 340 340 341 341 340
328 327 326 325 325 325 325 325 325 325 326 326 327 327 328 329 330 330 328 326 324 321 318 314 308 300 292 285 279 276 278 288 306 322 331 335 337 338 337 335 332 331 331 332 332 333 334 334 332 332 333 336 338 339 341 341 340 339 339 338 338 338 337 337 338 338 338 338 338
327 326 326 326 326 326 326 325 326 327 328 329 329 330 330 332 333 332 330 326 322 319 317 314 310 304 296 288 280 275 276 290 316 332 337 338 338 339 339 340 340 340 340 339 339 338 338 337 337 338 340 341 342 342 342 342 341 339 338 337 336 336 336 336 335 335 334 334 334
327 327 327 327 327 327 327 327 328 328 329 329 329 330 330 331 332 331 328 324 321 319 317 315 310 305 299 291 282 277 280 299 326 337 339 338 338 339 342 344 344 343 342 342 341 341 340 340 339 340 341 342 342 342 342 341 340 339 338 336 335 335 334 334 333 332 332 331 331
329 329 329 329 329 329 328 328 328 327 327 327 326 327 327 328 328 327 325 323 320 319 317 315 310 305 299 292 283 277 283 308 329 336 336 336 337 340 343 344 343 343 343 342 342 342 341 341 340 340 340 341 341 341 341 340 339 338 336 335 333 333 332 332 331 330 329 328 328
332 331 331 330 330 329 328 327 326 325 325 324 323 324 324 324 324 323 321 320 319 318 316 313 308 304 298 290 281 278 288 313 329 333 334 335 339 342 344 344 344 343 343 343 342 342 341 341 340 339 338 338 338 338 338 337 336 335 334 332 331 330 329 329 328 326 326 325 326
333 332 331 330 328 327 326 325 324 324 323 322 321 321 322 321 320 319 317 316 315 315 314 310 307 303 296 287 282 286 303 320 329 331 333 337 343 345 345 345 345 344 343 342 341 340 339 338 336 335 334 333 333 333 333 332 332 331 330 328 327 327 326 325 324 323 322 323 323
332 331 330 328 327 326 325 324 323 323 322 321 321 320 320 319 318 316 315 313 312 312 311 308 307 302 294 286 291 307 323 329 332 334 337 342 346 346 345 344 343 342 341 339 337 336 334 332 330 329 327 327 327 327 327 328 327 326 325 324 323 322 321 320 320 319 319 320 321
331 330 328 327 326 325 325 325 324 323 323 322 321 320 319 318 318 316 315 312 310 309 308 307 305 299 292 288 300 319 331 335 337 340 344 347 345 342 340 338 337 336 334 332 330 329 327 326 324 322 321 321 322 323 324 324 324 323 322 320 319 318 317 316 315 316 316 317 318
330 329 328 327 327 326 326 326 326 325 325 324 323 322 321 320 319 318 315 310 308 306 306 304 299 292 287 289 305 323 333 338 342 346 347 344 339 335 333 332 331 329 327 325 324 323 321 320 319 318 318 318 319 320 321 322 322 321 319 317 315 314 312 312 312 312 313 314 315
331 330 329 328 328 328 328 328 329 328 328 328 327 326 326 325 323 320 315 308 305 304 302 298 291 284 285 297 314 325 333 339 345 346 341 335 330 328 328 327 326 324 322 322 321 320 318 317 317 316 317 317 318 319 319 320 320 319 317 315 313 311 310 309 309 310 310 311 312
331 330 330 330 330 330 331 331 332 333 334 335 336 337 336 334 330 324 316 309 303 300 298 294 288 289 298 313 323 331 338 343 344 338 330 323 323 324 324 324 323 321 320 320 319 318 316 315 315 315 316 316 317 318 318 318 318 317 315 313 311 309 308 308 307 308 309 309 310
332 331 331 331 331 332 333 335 337 340 344 346 348 349 348 345 339 331 320 310 302 300 300 302 306 315 325 333 339 344 346 345 338 329 322 320 321 322 322 321 320 320 320 319 318 316 315 314 314 315 315 316 316 316 317 317 317 316 315 313 311 309 308 307 307 307 308 309 310
332 332 332 332 333 334 337 340 345 350 354 356 358 358 357 354 349 340 328 314 306 306 312 321 331 342 351 357 358 355 348 340 331 325 322 322 322 321 320 319 319 319 318 317 316 315 314 314 314 314 315 315 315 316 316 316 316 315 315 313 311 310 309 308 308 308 309 309 310
333 333 333 334 335 338 343 348 353 356 358 359 360 1 0 359 357 350 338 326 320 322 330 340 351 1 7 7 1 353 343 335 330 328 326 324 322 320 319 319 318 318 317 316 315 314 314 314 314 314 314 315 315 316 316 317 317 316 315 314 312 311 310 309 309 310 310 311 312
333 334 335 336 340 345 351 356 356 355 355 356 357 359 360 0 359 355 348 341 339 341 346 354 2 7 8 4 358 350 343 338 334 331 328 325 322 320 319 318 317 316 315 314 314 313 313 314 314 314 315 315 316 317 317 317 317 317 316 315 314 313 312 312 312 312 312 312 313
334 335 338 341 346 352 357 357 353 350 350 351 354 356 357 358 358 355 351 348 347 349 353 359 4 6 5 2 357 351 345 340 335 331 327 324 322 321 319 318 316 315 314 314 314 314 314 314 314 315 315 316 317 318 318 318 318 318 317 317 316 315 315 315 315 315 315 314 314
336 339 342 346 351 355 357 353 349 346 346 348 351 354 356 357 356 353 348 346 348 353 0 5 6 6 4 360 354 348 343 338 333 330 327 325 323 322 320 319 317 316 315 315 315 315 315 315 315 316 316 317 318 318 319 319 320 319 319 319 318 318 318 317 317 317 317 316 315
339 343 348 351 354 355 353 349 346 345 344 345 349 353 356 360 1 359 356 354 357 2 7 8 6 3 359 353 348 343 338 334 331 329 327 326 325 323 322 320 319 318 317 317 317 317 317 317 317 317 317 318 319 320 320 320 321 320 320 320 319 318 318 317 317 317 317 316 316
344 349 352 354 354 353 350 347 345 344 344 346 348 352 357 2 6 7 6 4 5 6 6 4 360 355 351 346 342 338 335 332 330 328 327 326 325 324 323 322 321 321 320 321 320 320 319 319 319 319 319 319 320 321 321 321 320 320 320 319 318 317 316 315 314 314 314 314 314
349 354 355 354 353 351 347 344 343 344 345 348 351 355 359 3 6 8 7 5 4 2 359 355 351 347 344 341 337 335 333 332 330 329 328 326 325 324 323 323 323 323 323 323 323 322 321 321 320 321 321 321 321 321 321 321 320 319 319 318 316 314 312 311 310 310 311 312 312
353 357 355 351 349 346 343 342 342 344 348 353 357 360 2 4 5 5 2 359 356 352 349 345 343 341 340 338 337 336 335 333 332 330 328 326 325 324 324 324 324 324 324 324 324 323 322 322 322 322 322 322 322 321 321 320 319 319 318 316 314 312 309 306 305 306 307 308 308
355 357 352 347 343 341 338 338 339 344 351 357 1 2 2 1 360 357 354 350 347 343 340 338 338 338 338 338 338 337 336 333 331 328 327 325 325 324 324 324 324 324 324 324 323 322 322 322 322 321 321 321 321 320 320 319 318 317 316 315 313 310 306 303 301 301 302 303 303
355 355 350 345 341 337 335 334 335 338 344 350 354 354 353 352 350 347 345 343 341 339 338 337 337 337 338 339 338 336 333 330 328 327 326 325 325 325 325 325 325 324 324 324 323 322 321 321 320 320 319 319 319 318 317 316 315 314 313 312 311 308 304 301 299 298 299 299 300
354 354 350 346 343 339 337 335 333 334 336 339 340 340 339 340 341 341 342 342 343 343 343 342 340 339 338 337 334 332 329 327 326 326 326 325 325 325 325 325 325 325 325 325 323 322 321 320 319 318 317 317 316 315 314 313 313 312 311 310 308 306 304 302 300 300 300 300 300
354 353 351 348 346 344 341 339 336 335 335 335 335 334 334 335 337 340 342 345 347 348 347 346 342 339 335 333 330 327 326 325 326 327 326 326 326 326 327 326 327 327 327 326 325 324 322 320 318 317 316 316 315 314 313 313 312 311 311 310 309 307 305 303 302 302 302 302 302
352 351 350 348 348 347 345 343 341 339 338 338 337 336 335 334 336 338 342 345 346 347 346 345 340 335 330 328 326 325 325 326 327 327 327 327 327 328 328 328 328 329 329 328 326 325 323 321 319 318 317 317 317 316 316 315 315 315 314 313 312 310 307 305 304 303 303 302 302
348 348 347 346 346 347 346 345 343 342 341 339 337 336 334 333 334 336 339 341 343 343 343 341 335 329 326 324 324 325 326 327 327 328 328 328 328 329 329 330 330 330 330 329 328 326 325 323 321 320 319 319 319 319 319 319 319 318 317 315 313 311 309 307 305 304 303 302 301
344 344 343 342 343 343 344 344 343 342 340 338 336 334 333 332 332 333 335 336 338 340 340 337 332 327 325 324 324 325 326 326 327 328 329 329 330 330 330 331 332 332 331 331 330 329 328 326 324 323 322 322 322 321 321 321 320 319 317 315 313 311 309 307 306 305 304 303 303
340 340 339 338 338 339 340 341 340 340 338 336 335 333 332 331 331 331 331 332 335 337 337 336 332 328 325 324 324 325 326 326 327 328 329 330 330 331 332 333 334 335 335 334 333 333 332 331 330 328 327 326 325 324 323 322 320 318 316 314 312 311 309 309 308 308 308 307 307
338 338 336 335 334 334 335 336 337 337 336 335 334 332 331 330 329 329 329 331 333 336 336 334 331 327 324 324 324 324 325 326 327 328 329 330 331 332 334 335 337 338 338 338 337 337 336 336 335 334 333 331 329 327 325 323 320 318 316 315 314 313 313 313 313 313 314 314 314
Height
1547 1546 1545 1543 1542 1541 1540 1539 1538 1537 1536 1535 1533 1532 1531 1530 1529 1527 1526 1525 1524 1523 1522 1521 1519 1518 1517 1515 1514 1512 1510 1509 1507 1506 1504 1502 1501 1501 1501 1501 1500 1500 1499 1498 1498 1497 1496 1496 1496 1496 1495 1495 1494 1494 1493 1493 1493 1492 1491 1490 1489 1488 1488 1487 1487 1486 1485 1484 1483
1546 1545 1544 1543 1542 1541 1539 1538 1537 1536 1535 1534 1533 1532 1530 1529 1528 1526 1524 1523 1522 1521 1519 1518 1517 1515 1514 1512 1511 1509 1508 1506 1505 1503 1502 1500 1500 1499 1499 1499 1498 1498 1497 1496 1496 1495 1494 1494 1494 1493 1493 1493 1493 1492 1492 1491 1491 1490 1489 1488 1488 1487 1486 1486 1485 1485 1484 1482 1481
1545 1544 1543 1542 1541 1539 1538 1537 1536 1535 1534 1533 1532 1530 1529 1527 1526 1524 1522 1521 1519 1518 1517 1515 1514 1513 1511 1510 1508 1507 1505 1504 1503 1501 1500 1499 1498 1498 1498 1497 1497 1496 1495 1495 1494 1493 1493 1492 1492 1491 1491 1491 1491 1490 1490 1489 1489 1488 1488 1487 1487 1486 1485 1484 1483 1483 1482 1481 1480
1543 1543 1542 1540 1539 1538 1537 1536 1535 1533 1532 1531 1530 1528 1527 1525 1524 1522 1520 1519 1518 1516 1515 1514 1513 1511 1510 1508 1507 1505 1503 1502 1501 1500 1498 1497 1497 1496 1496 1495 1495 1494 1494 1493 1493 1492 1491 1490 1490 1489 1489 1489 1489 1488 1488 1488 1487 1487 1486 1485 1485 1484 1483 1482 1482 1481 1480 1479 1478
1542 1541 1540 1539 1538 1537 1536 1534 1533 1532 1530 1529 1528 1526 1525 1523 1522 1520 1518 1517 1516 1515 1514 1513 1511 1510 1508 1507 1506 1504 1503 1501 1499 1498 1497 1496 1495 1495 1494 1494 1494 1493 1493 1492 1491 1490 1489 1489 1488 1488 1487 1487 1487 1487 1486 1486 1485 1485 1484 1483 1483 1482 1482 1481 1480 1479 1478 1476 1475
1541 1540 1539 1538 1537 1535 1534 1533 1531 1530 1528 1527 1525 1524 1522 1521 1519 1518 1516 1515 1514 1513 1513 1512 1510 1509 1508 1506 1505 1503 1502 1500 1498 1496 1495 1494 1494 1493 1493 1493 1493 1492 1491 1491 1490 1489 1488 1487 1486 1486 1485 1485 1485 1485 1484 1484 1483 1483 1483 1482 1481 1481 1480 1479 1478 1477 1476 1474 1473
1539 1538 1537 1536 1535 1533 1532 1530 1529 1528 1526 1524 1523 1522 1520 1518 1517 1516 1514 1513 1512 1511 1510 1510 1509 1508 1507 1506 1504 1503 1501 1499 1497 1496 1494 1493 1493 1492 1492 1492 1491 1491 1490 1489 1488 1487 1486 1485 1484 1484 1483 1483 1483 1483 1482 1482 1482 1481 1481 1480 1479 1479 1478 1477 1476 1475 1474 1473 1472
1538 1537 1536 1535 1533 1532 1531 1529 1528 1526 1524 1523 1521 1520 1518 1517 1516 1514 1513 1512 1511 1510 1509 1508 1507 1507 1506 1505 1504 1502 1500 1498 1497 1495 1494 1493 1491 1490 1490 1490 1489 1489 1488 1487 1486 1485 1484 1483 1483 1482 1482 1481 1481 1481 1480 1480 1480 1479 1479 1478 1478 1477 1476 1475 1474 1473 1473 1472 1471
1536 1535 1534 1533 1532 1530 1529 1528 1526 1525 1523 1522 1520 1519 1517 1516 1514 1513 1511 1510 1509 1508 1507 1506 1505 1504 1503 1503 1502 1500 1499 1497 1495 1494 1493 1491 1490 1489 1488 1488 1488 1487 1487 1486 1484 1483 1482 1481 1480 1480 1480 1479 1479 1479 1478 1478 1478 1478 1477 1477 1476 1476 1475 1474 1473 1472 1471 1470 1470
1535 1533 1532 1531 1530 1528 1527 1526 1525 1523 1522 1520 1519 1518 1516 1515 1513 1512 1510 1508 1508 1506 1505 1504 1503 1502 1500 1499 1499 1498 1496 1495 1493 1492 1491 1489 1488 1487 1486 1486 1486 1486 1485 1484 1483 1482 1481 1480 1479 1479 1478 1478 1478 1477 1477 1477 1477 1476 1476 1475 1475 1474 1474 1473 1472 1471 1470 1470 1469
1533 1532 1531 1529 1528 1527 1525 1524 1523 1521 1520 1518 1517 1516 1514 1513 1512 1510 1508 1507 1506 1504 1503 1502 1501 1499 1498 1497 1496 1495 1494 1493 1492 1491 1489 1488 1487 1485 1485 1484 1485 1485 1484 1483 1482 1481 1480 1479 1478 1478 1478 1477 1477 1476 1476 1475 1475 1475 1475 1474 1474 1473 1473 1472 1471 1470 1470 1469 1468
1532 1531 1529 1528 1527 1525 1523 1522 1520 1519 1518 1516 1515 1513 1512 1511 1510 1508 1507 1505 1504 1503 1501 1500 1498 1497 1496 1495 1494 1493 1492 1492 1491 1490 1489 1488 1486 1485 1485 1485 1485 1484 1483 1482 1481 1480 1479 1479 1478 1478 1477 1476 1476 1475 1475 1474 1474 1474 1473 1473 1473 1472 1471 1471 1470 1469 1469 1468 1467
1531 1530 1528 1527 1525 1523 1522 1520 1519 1517 1516 1514 1513 1512 1510 1509 1508 1506 1505 1503 1502 1500 1499 1498 1497 1496 1494 1493 1492 1491 1491 1491 1490 1489 1488 1487 1486 1486 1485 1485 1485 1484 1483 1482 1481 1480 1479 1478 1478 1477 1476 1476 1475 1474 1474 1473 1473 1473 1472 1472 1471 1471 1470 1469 1469 1468 1468 1467 1466
1530 1529 1527 1526 1524 1523 1521 1519 1518 1516 1514 1513 1511 1510 1508 1507 1506 1504 1503 1502 1500 1498 1497 1496 1495 1494 1493 1492 1490 1490 1489 1490 1489 1488 1488 1487 1486 1485 1485 1485 1484 1483 1482 1481 1480 1479 1478 1478 1477 1477 1476 1475 1474 1473 1473 1472 1472 1471 1471 1470 1470 1469 1469 1468 1468 1467 1466 1465 1465
1529 1528 1526 1524 1523 1521 1520 1518 1516 1514 1513 1511 1510 1508 1507 1506 1504 1503 1501 1500 1498 1497 1496 1494 1493 1493 1491 1490 1489 1488 1488 1488 1487 1487 1486 1486 1485 1485 1484 1484 1483 1482 1481 1480 1479 1478 1478 1477 1476 1476 1475 1474 1473 1473 1472 1471 1470 1470 1470 1469 1469 1468 1468 1467 1466 1466 1465 1464 1463
1528 1526 1525 1523 1522 1520 1518 1517 1515 1513 1512 1510 1508 1507 1505 1504 1503 1501 1500 1498 1497 1495 1494 1493 1492 1491 1490 1488 1488 1487 1486 1485 1485 1485 1485 1484 1484 1484 1484 1483 1482 1481 1480 1479 1478 1478 1477 1476 1476 1475 1474 1474 1473 1472 1471 1470 1470 1469 1468 1468 1468 1467 1466 1466 1465 1464 1463 1463 1462
1527 1525 1523 1522 1520 1518 1517 1515 1513 1512 1510 1508 1506 1505 1503 1502 1500 1499 1498 1496 1495 1494 1493 1491 1490 1489 1488 1487 1486 1485 1484 1483 1483 1483 1483 1483 1483 1483 1483 1482 1481 1480 1479 1478 1478 1477 1476 1476 1475 1475 1474 1473 1472 1471 1470 1470 1469 1468 1468 1467 1466 1466 1465 1464 1464 1463 1462 1461 1461
1525 1523 1522 1520 1518 1517 1515 1513 1511 1509 1508 1506 1504 1503 1501 1500 1498 1496 1494 1493 1493 1492 1490 1489 1488 1488 1487 1486 1485 1484 1483 1483 1482 1482 1482 1482 1482 1482 1482 1481 1480 1479 1478 1478 1477 1476 1476 1475 1475 1474 1473 1473 1472 1471 1470 1469 1468 1468 1467 1466 1466 1465 1464 1463 1463 1462 1461 1460 1459
1524 1522 1520 1518 1517 1515 1513 1511 1509 1508 1506 1504 1502 1500 1499 1497 1496 1494 1492 1490 1489 1489 1488 1487 1486 1485 1485 1484 1484 1484 1483 1482 1482 1481 1481 1481 1481 1481 1481 1480 1479 1479 1478 1477 1476 1476 1475 1475 1474 1473 1473 1472 1471 1470 1469 1468 1468 1467 1466 1465 1464 1464 1463 1463 1462 1461 1460 1459 1458
1523 1521 1518 1517 1515 1513 1511 1509 1508 1506 1504 1502 1500 1498 1496 1494 1493 1492 1490 1488 1487 1486 1486 1485 1484 1484 1483 1483 1483 1483 1482 1482 1481 1481 1481 1481 1481 1480 1480 1479 1479 1478 1477 1476 1476 1475 1474 1474 1473 1473 1472 1471 1470 1469 1468 1467 1466 1465 1465 1464 1463 1463 1462 1461 1460 1460 1459 1458 1457
1521 1519 1517 1515 1513 1512 1510 1508 1506 1504 1502 1500 1498 1496 1494 1492 1490 1489 1488 1487 1485 1484 1484 1483 1483 1482 1482 1482 1482 1482 1481 1481 1481 1480 1480 1480 1480 1480 1479 1479 1478 1477 1476 1476 1475 1474 1474 1473 1473 1472 1471 1470 1469 1468 1467 1466 1465 1464 1463 1463 1462 1461 1460 1460 1459 1458 1457 1456 1455
1519 1517 1515 1513 1512 1510 1508 1507 1505 1503 1501 1499 1497 1494 1492 1490 1489 1488 1487 1486 1484 1483 1483 1482 1482 1481 1481 1481 1481 1481 1481 1480 1480 1480 1480 1480 1480 1479 1479 1478 1477 1477 1476 1475 1475 1474 1473 1473 1472 1471 1470 1469 1468 1467 1466 1464 1463 1463 1462 1461 1460 1459 1459 1458 1457 1457 1456 1455 1454
1518 1516 1514 1512 1510 1508 1507 1505 1504 1502 1500 1498 1496 1493 1491 1490 1488 1487 1486 1485 1484 1483 1483 1483 1482 1482 1482 1481 1481 1481 1480 1480 1480 1480 1480 1480 1479 1479 1478 1478 1477 1476 1475 1474 1474 1473 1473 1472 1471 1470 1469 1468 1466 1465 1464 1463 1462 1461 1460 1459 1458 1458 1457 1456 1455 1455 1454 1453 1452
1516 1514 1513 1511 1509 1507 1506 1504 1503 1501 1499 1497 1495 1493 1491 1489 1488 1487 1486 1485 1485 1484 1484 1483 1483 1482 1482 1481 1481 1481 1480 1480 1480 1480 1479 1479 1479 1478 1478 1477 1476 1475 1474 1474 1473 1472 1472 1470 1469 1468 1468 1466 1465 1464 1463 1462 1460 1459 1458 1458 1457 1456 1455 1454 1453 1453 1452 1451 1450
1515 1513 1511 1509 1508 1506 1504 1503 1502 1501 1499 1497 1495 1493 1491 1490 1488 1488 1487 1486 1486 1485 1484 1484 1483 1483 1482 1482 1481 1481 1481 1480 1480 1480 1479 1479 1478 1478 1477 1476 1475 1474 1473 1473 1472 1471 1470 1469 1468 1467 1466 1465 1463 1462 1461 1460 1459 1458 1457 1456 1455 1454 1453 1452 1451 1450 1449 1449 1448
1514 1512 1510 1508 1506 1505 1503 1502 1501 1500 1498 1497 1495 1493 1491 1490 1489 1488 1488 1487 1486 1485 1485 1484 1483 1483 1482 1482 1481 1481 1481 1480 1480 1479 1479 1478 1478 1477 1476 1475 1474 1473 1473 1472 1471 1470 1469 1468 1467 1466 1464 1463 1462 1461 1459 1458 1457 1456 1455 1454 1453 1452 1451 1450 1449 1448 1447 1447 1446
1513 1510 1508 1507 1505 1504 1503 1502 1501 1500 1498 1497 1495 1493 1492 1491 1490 1489 1488 1488 1487 1486 1485 1484 1483 1483 1482 1482 1482 1481 1481 1480 1480 1479 1478 1478 1477 1476 1475 1474 1473 1473 1472 1471 1470 1469 1468 1467 1465 1464 1463 1462 1460 1459 1458 1456 1455 1454 1453 1452 1451 1449 1448 1448 1447 1446 1445 1444 1444
1511 1509 1508 1506 1505 1503 1503 1501 1500 1499 1498 1496 1495 1493 1492 1491 1490 1490 1489 1488 1487 1486 1485 1484 1483 1483 1483 1482 1482 1481 1481 1480 1479 1478 1478 1477 1476 1475 1474 1473 1473 1472 1471 1470 1468 1468 1466 1465 1464 1463 1461 1460 1458 1457 1456 1454 1453 1452 1451 1450 1449 1448 1447 1446 1444 1444 1443 1442 1442
1510 1508 1507 1505 1504 1503 1502 1501 1500 1499 1497 1496 1494 1493 1493 1492 1491 1490 1489 1488 1487 1486 1485 1484 1484 1483 1483 1483 1482 1481 1480 1479 1478 1478 1477 1476 1475 1474 1473 1472 1471 1470 1469 1468 1467 1466 1465 1463 1462 1461 1459 1458 1457 1455 1454 1453 1452 1450 1449 1448 1447 1446 1445 1444 1443 1442 1441 1440 1439
1510 1508 1506 1505 1504 1503 1502 1501 1500 1498 1497 1496 1495 1494 1493 1492 1491 1490 1489 1488 1487 1486 1485 1485 1484 1484 1483 1483 1482 1481 1480 1479 1478 1477 1476 1475 1474 1473 1473 1471 1470 1469 1468 1467 1465 1464 1463 1462 1460 1459 1458 1456 1455 1453 1452 1451 1450 1449 1448 1447 1446 1445 1443 1442 1441 1440 1439 1438 1438
1509 1507 1506 1505 1504 1503 1502 1501 1500 1498 1497 1496 1495 1494 1493 1492 1491 1490 1489 1489 1488 1487 1486 1485 1484 1484 1483 1482 1481 1480 1479 1478 1477 1476 1475 1474 1473 1473 1472 1470 1469 1468 1467 1465 1464 1463 1461 1460 1458 1457 1455 1454 1453 1452 1450 1449 1448 1447 1446 1445 1444 1443 1442 1440 1439 1438 1437 1436 1435
1508 1507 1506 1505 1504 1503 1502 1501 1499 1498 1497 1496 1495 1494 1493 1492 1491 1490 1490 1489 1488 1487 1486 1485 1484 1483 1482 1481 1480 1479 1478 1477 1476 1475 1474 1473 1473 1472 1470 1469 1468 1467 1465 1464 1463 1461 1459 1458 1456 1455 1454 1452 1451 1450 1449 1448 1447 1446 1445 1444 1443 1441 1440 1438 1437 1436 1435 1434 1433
1508 1507 1506 1505 1504 1503 1502 1500 1499 1498 1497 1496 1495 1494 1493 1492 1491 1490 1489 1489 1488 1487 1486 1485 1484 1483 1482 1480 1479 1478 1478 1477 1476 1475 1474 1473 1472 1470 1469 1468 1467 1465 1464 1463 1461 1459 1458 1456 1455 1453 1452 1451 1449 1448 1447 1446 1445 1444 1443 1442 1441 1440 1438 1437 1436 1434 1433 1432 1431
1508 1507 1506 1505 1503 1502 1501 1500 1499 1498 1497 1496 1494 1493 1493 1492 1491 1490 1489 1488 1487 1486 1485 1484 1483 1482 1481 1480 1479 1478 1477 1476 1475 1474 1473 1472 1470 1469 1468 1467 1465 1464 1463 1461 1459 1458 1456 1455 1453 1452 1451 1450 1448 1447 1446 1445 1443 1443 1442 1441 1440 1438 1437 1436 1434 1433 1432 1431 1430
1507 1506 1505 1504 1503 1502 1501 1500 1499 1498 1496 1495 1494 1493 1492 1491 1490 1489 1488 1488 1487 1486 1485 1484 1483 1481 1480 1479 1478 1477 1476 1475 1474 1473 1472 1470 1469 1468 1467 1465 1464 1463 1461 1459 1458 1456 1454 1453 1452 1451 1449 1448 1447 1446 1445 1443 1442 1441 1440 1439 1438 1437 1436 1435 1433 1432 1431 1430 1428
1506 1505 1504 1503 1503 1502 1501 1500 1499 1498 1496 1495 1494 1493 1492 1491 1490 1489 1488 1487 1486 1485 1484 1483 1482 1481 1480 1478 1477 1476 1475 1474 1473 1472 1470 1469 1468 1467 1465 1464 1462 1461 1459 1458 1456 1454 1453 1451 1450 1449 1448 1447 1446 1444 1443 1442 1441 1439 1438 1437 1436 1435 1434 1433 1432 1431 1430 1428 1427
1506 1505 1504 1503 1502 1501 1500 1499 1498 1497 1496 1495 1494 1493 1492 1491 1489 1488 1488 1486 1485 1484 1483 1482 1481 1480 1479 1478 1477 1475 1474 1473 1472 1471 1469 1468 1467 1465 1464 1462 1461 1459 1458 1456 1454 1453 1451 1450 1448 1447 1446 1445 1444 1443 1442 1440 1439 1438 1437 1435 1434 1433 1433 1432 1430 1429 1428 1427 1426
1505 1504 1503 1502 1501 1500 1499 1498 1498 1497 1495 1494 1493 1492 1491 1490 1489 1488 1487 1486 1484 1483 1482 1481 1480 1479 1478 1477 1476 1475 1473 1472 1471 1470 1468 1467 1465 1464 1463 1461 1459 1458 1457 1455 1453 1452 1450 1448 1447 1446 1444 1443 1442 1441 1440 1438 1437 1436 1435 1433 1433 1432 1431 1429 1428 1427 1426 1425 1424
1505 1504 1503 1502 1501 1500 1499 1498 1497 1496 1495 1493 1492 1491 1490 1489 1488 1487 1486 1485 1484 1483 1482 1481 1480 1478 1478 1477 1475 1474 1473 1472 1470 1469 1467 1466 1464 1463 1462 1460 1458 1457 1456 1454 1452 1451 1449 1447 1446 1444 1443 1442 1440 1439 1438 1437 1435 1434 1433 1432 1430 1429 1428 1427 1426 1425 1424 1423 1422
1504 1503 1502 1501 1500 1499 1498 1497 1496 1495 1494 1493 1492 1490 1489 1488 1487 1486 1485 1484 1483 1482 1481 1480 1479 1478 1477 1476 1475 1473 1472 1471 1469 1468 1466 1465 1463 1462 1461 1459 1458 1456 1455 1453 1452 1450 1448 1447 1445 1443 1441 1440 1439 1437 1436 1434 1433 1432 1430 1429 1428 1427 1425 1424 1423 1423 1421 1420 1419
1504 1503 1502 1500 1499 1498 1497 1496 1495 1494 1493 1492 1491 1490 1488 1488 1487 1486 1484 1483 1482 1481 1480 1479 1478 1477 1476 1475 1474 1473 1471 1470 1468 1467 1465 1464 1463 1461 1460 1458 1457 1455 1454 1453 1451 1449 1448 1446 1444 1443 1441 1438 1437 1435 1434 1433 1431 1429 1428 1427 1425 1424 1423 1422 1420 1419 1418 1417 1416